HFM801 FACT-AT98

Flight info

Callsign HFM801
Flight time 6h 11m
Altitude 32000
Route IMSOM UQ36 APKIN UL211F ITLIK/N0487F330 DCT 36S015E/N0483F350 40S014E 45S013E 50S013E 55S013E 60S012E/N0469F370 65S011E 70S010E
Aircraft A343/H-SDE2E3FGHIJ4J5M1RWXY/LB1D1

Departure

Time 2026-05-04 13:08
Airport Cape Town International Airport (FACT)

Arrival

Time 2026-05-04 19:19
Airport (Duplicate)Wolf's Fang Runway (AT98)
Time Latitude Longitude Altitude Speed Heading
2026-05-04 12:39 -33.96598 18.59803 170 ft 0 kts 166°
2026-05-04 12:52 -33.96613 18.59902 170 ft 8 kts 75°
2026-05-04 12:57 -33.96618 18.59879 170 ft 4 kts 75°
2026-05-04 12:58 -33.96624 18.59850 170 ft 3 kts 75°
2026-05-04 12:58 -33.96627 18.59822 170 ft 4 kts 119°
2026-05-04 12:58 -33.96609 18.59806 170 ft 4 kts 167°
2026-05-04 12:58 -33.96593 18.59802 170 ft 1 kts 166°
2026-05-04 12:59 -33.96591 18.59801 170 ft 0 kts 166°
2026-05-04 13:01 -33.96593 18.59802 170 ft 2 kts 166°
2026-05-04 13:01 -33.96629 18.59813 170 ft 9 kts 166°
2026-05-04 13:02 -33.96723 18.59844 170 ft 19 kts 164°
2026-05-04 13:02 -33.96875 18.59894 170 ft 24 kts 165°
2026-05-04 13:02 -33.97035 18.59947 170 ft 24 kts 165°
2026-05-04 13:02 -33.97192 18.59986 170 ft 22 kts 165°
2026-05-04 13:03 -33.97339 18.60032 170 ft 22 kts 165°
2026-05-04 13:03 -33.97482 18.60080 170 ft 21 kts 164°
2026-05-04 13:03 -33.97616 18.60146 170 ft 20 kts 156°
2026-05-04 13:03 -33.97746 18.60207 170 ft 20 kts 161°
2026-05-04 13:04 -33.97901 18.60272 170 ft 27 kts 161°
2026-05-04 13:04 -33.98101 18.60359 167 ft 35 kts 160°
2026-05-04 13:04 -33.98330 18.60457 164 ft 35 kts 161°
2026-05-04 13:04 -33.98555 18.60550 161 ft 34 kts 161°
2026-05-04 13:05 -33.98774 18.60646 158 ft 25 kts 155°
2026-05-04 13:05 -33.98786 18.60776 158 ft 16 kts 76°
2026-05-04 13:05 -33.98766 18.60871 158 ft 3 kts 73°
2026-05-04 13:05 -33.98757 18.60876 159 ft 1 kts 20°
2026-05-04 13:06 -33.98737 18.60875 159 ft 2 kts 352°
2026-05-04 13:06 -33.98732 18.60873 159 ft 0 kts 349°
2026-05-04 13:06 -33.98730 18.60873 159 ft 3 kts 348°
2026-05-04 13:06 -33.98616 18.60838 156 ft 39 kts 345°
2026-05-04 13:07 -33.98185 18.60697 159 ft 88 kts 344°
2026-05-04 13:07 -33.97450 18.60466 158 ft 128 kts 345°
2026-05-04 13:07 -33.96499 18.60169 360 ft 144 kts 344°
2026-05-04 13:07 -33.95538 18.59867 739 ft 144 kts 342°
2026-05-04 13:08 -33.94546 18.59501 1050 ft 154 kts 332°
2026-05-04 13:08 -33.93679 18.58715 1313 ft 164 kts 304°
2026-05-04 13:08 -33.93309 18.57367 1497 ft 182 kts 276°
2026-05-04 13:08 -33.93240 18.55781 1817 ft 198 kts 277°
2026-05-04 13:09 -33.92747 18.54116 2005 ft 223 kts 299°
2026-05-04 13:09 -33.91907 18.52514 2574 ft 233 kts 303°
2026-05-04 13:09 -33.90978 18.50875 3217 ft 241 kts 303°
2026-05-04 13:09 -33.90007 18.49197 3968 ft 244 kts 303°
2026-05-04 13:10 -33.89030 18.47516 4720 ft 247 kts 303°
2026-05-04 13:10 -33.88051 18.45825 5449 ft 249 kts 303°
2026-05-04 13:10 -33.87073 18.44121 6217 ft 251 kts 302°
2026-05-04 13:10 -33.86389 18.42215 6911 ft 253 kts 282°
2026-05-04 13:11 -33.86184 18.40179 7548 ft 257 kts 275°
2026-05-04 13:11 -33.86204 18.37944 8256 ft 260 kts 265°
2026-05-04 13:11 -33.86436 18.35790 8935 ft 263 kts 263°
2026-05-04 13:11 -33.86743 18.33581 9628 ft 266 kts 262°
2026-05-04 13:12 -33.87093 18.31394 10219 ft 271 kts 261°
2026-05-04 13:12 -33.87480 18.29104 10500 ft 286 kts 261°
2026-05-04 13:12 -33.87891 18.26718 10749 ft 301 kts 261°
2026-05-04 13:12 -33.88328 18.24178 11006 ft 316 kts 261°
2026-05-04 13:13 -33.88783 18.21524 11240 ft 330 kts 261°
2026-05-04 13:13 -33.89248 18.18785 11478 ft 343 kts 261°
2026-05-04 13:13 -33.89731 18.15928 11902 ft 350 kts 261°
2026-05-04 13:13 -33.90216 18.13054 12421 ft 354 kts 261°
2026-05-04 13:14 -33.90710 18.10122 13011 ft 357 kts 262°
2026-05-04 13:14 -33.91200 18.07206 13599 ft 359 kts 262°
2026-05-04 13:14 -33.91698 18.04227 14156 ft 362 kts 262°
2026-05-04 13:14 -33.92192 18.01266 14709 ft 363 kts 263°
2026-05-04 13:15 -33.92693 17.98257 15272 ft 365 kts 263°
2026-05-04 13:15 -33.93187 17.95287 15821 ft 367 kts 263°
2026-05-04 13:15 -33.93689 17.92259 16374 ft 369 kts 263°
2026-05-04 13:15 -33.94195 17.89202 16908 ft 371 kts 264°
2026-05-04 13:16 -33.94702 17.86136 17467 ft 373 kts 264°
2026-05-04 13:16 -33.95203 17.83103 18013 ft 374 kts 264°
2026-05-04 13:16 -33.95714 17.79998 18524 ft 377 kts 264°
2026-05-04 13:16 -33.96222 17.76911 18954 ft 379 kts 265°
2026-05-04 13:17 -33.96736 17.73775 19418 ft 382 kts 264°
2026-05-04 13:17 -33.97249 17.70639 19784 ft 386 kts 264°
2026-05-04 13:17 -33.97771 17.67448 20204 ft 389 kts 264°
2026-05-04 13:17 -33.98297 17.64231 20648 ft 391 kts 265°
2026-05-04 13:18 -33.98821 17.61026 21069 ft 393 kts 265°
2026-05-04 13:18 -33.99354 17.57755 21486 ft 396 kts 265°
2026-05-04 13:18 -33.99881 17.54518 21892 ft 398 kts 265°
2026-05-04 13:18 -34.00416 17.51224 22298 ft 401 kts 265°
2026-05-04 13:19 -34.00955 17.47896 22696 ft 403 kts 265°
2026-05-04 13:19 -34.01495 17.44558 23091 ft 406 kts 265°
2026-05-04 13:19 -34.02034 17.41221 23481 ft 408 kts 265°
2026-05-04 13:19 -34.02580 17.37840 23793 ft 411 kts 264°
2026-05-04 13:20 -34.03123 17.34471 24043 ft 415 kts 264°
2026-05-04 13:20 -34.03676 17.31029 24381 ft 416 kts 264°
2026-05-04 13:20 -34.04229 17.27581 24713 ft 417 kts 265°
2026-05-04 13:20 -34.04775 17.24175 25045 ft 418 kts 265°
2026-05-04 13:21 -34.05327 17.20714 25358 ft 420 kts 265°
2026-05-04 13:21 -34.05881 17.17237 25669 ft 421 kts 265°
2026-05-04 13:21 -34.06430 17.13790 25963 ft 423 kts 265°
2026-05-04 13:21 -34.06984 17.10300 26248 ft 425 kts 265°
2026-05-04 13:22 -34.07561 17.06778 26550 ft 428 kts 263°
2026-05-04 13:22 -34.08405 17.03288 26839 ft 436 kts 256°
2026-05-04 13:22 -34.09645 16.99946 27059 ft 445 kts 248°
2026-05-04 13:22 -34.11250 16.96691 27327 ft 452 kts 244°
2026-05-04 13:23 -34.13008 16.93580 27584 ft 456 kts 242°
2026-05-04 13:23 -34.14890 16.90468 27843 ft 458 kts 240°
2026-05-04 13:23 -34.16814 16.87362 28086 ft 460 kts 240°
2026-05-04 13:23 -34.18721 16.84288 28326 ft 462 kts 240°
2026-05-04 13:24 -34.20662 16.81130 28565 ft 463 kts 241°
2026-05-04 13:24 -34.22573 16.77989 28805 ft 465 kts 241°
2026-05-04 13:24 -34.24460 16.74861 29114 ft 464 kts 241°
2026-05-04 13:25 -34.28240 16.68556 29831 ft 462 kts 240°
2026-05-04 13:25 -34.30107 16.65428 30135 ft 461 kts 240°
2026-05-04 13:25 -34.31996 16.62261 30391 ft 461 kts 240°
2026-05-04 13:25 -34.33854 16.59142 30637 ft 460 kts 240°
2026-05-04 13:26 -34.35732 16.55989 30872 ft 460 kts 240°
2026-05-04 13:26 -34.37608 16.52836 31109 ft 460 kts 240°
2026-05-04 13:26 -34.39481 16.49685 31309 ft 461 kts 240°
2026-05-04 13:26 -34.41332 16.46570 31549 ft 460 kts 240°
2026-05-04 13:27 -34.43212 16.43404 31775 ft 460 kts 240°
2026-05-04 13:27 -34.45063 16.40285 31962 ft 461 kts 240°
2026-05-04 13:27 -34.48816 16.33948 32009 ft 461 kts 239°
2026-05-04 13:28 -34.52538 16.27658 31991 ft 460 kts 239°
2026-05-04 13:28 -34.56259 16.21355 31985 ft 460 kts 239°
2026-05-04 13:29 -34.59995 16.15014 31989 ft 460 kts 239°
2026-05-04 13:29 -34.63707 16.08704 31987 ft 460 kts 239°
2026-05-04 13:30 -34.67405 16.02408 31991 ft 460 kts 239°
2026-05-04 13:30 -34.71133 15.96046 31985 ft 460 kts 238°
2026-05-04 13:31 -34.74843 15.89707 31986 ft 460 kts 238°
2026-05-04 13:31 -34.78547 15.83366 31986 ft 461 kts 238°
2026-05-04 13:32 -34.82236 15.77040 31983 ft 460 kts 238°
2026-05-04 13:32 -34.85951 15.70658 31983 ft 460 kts 238°
2026-05-04 13:33 -34.89648 15.64294 31990 ft 460 kts 238°
2026-05-04 13:33 -34.93338 15.57930 31989 ft 460 kts 238°
2026-05-04 13:34 -34.97023 15.51565 31986 ft 460 kts 238°
2026-05-04 13:34 -35.00695 15.45212 31988 ft 460 kts 238°
2026-05-04 13:35 -35.06222 15.35625 31987 ft 461 kts 238°
2026-05-04 13:36 -35.09912 15.29210 31985 ft 461 kts 238°
2026-05-04 13:36 -35.13589 15.22807 31986 ft 461 kts 237°
2026-05-04 13:37 -35.17283 15.16362 31991 ft 461 kts 237°
2026-05-04 13:37 -35.20968 15.09986 31984 ft 462 kts 234°
2026-05-04 13:38 -35.25554 15.04466 31995 ft 468 kts 218°
2026-05-04 13:38 -35.28358 15.02394 32136 ft 473 kts 208°
2026-05-04 13:38 -35.31401 15.00926 32365 ft 476 kts 199°
2026-05-04 13:38 -35.34682 15.00096 32616 ft 479 kts 189°
2026-05-04 13:39 -35.37991 14.99854 32851 ft 481 kts 185°
2026-05-04 13:39 -35.41346 14.99788 32981 ft 483 kts 183°
2026-05-04 13:39 -35.44744 14.99801 32982 ft 486 kts 182°
2026-05-04 13:40 -35.51464 14.99890 32981 ft 483 kts 182°
2026-05-04 13:40 -35.58176 14.99947 32981 ft 483 kts 182°
2026-05-04 13:41 -35.64878 14.99966 32977 ft 483 kts 183°
2026-05-04 13:41 -35.71592 14.99971 32979 ft 483 kts 183°
2026-05-04 13:42 -35.81678 14.99979 32980 ft 483 kts 182°
2026-05-04 13:42 -35.88396 14.99987 32974 ft 481 kts 183°
2026-05-04 13:43 -35.95059 14.99995 32972 ft 481 kts 183°
2026-05-04 13:43 -36.01716 14.99489 33273 ft 476 kts 192°
2026-05-04 13:44 -36.04960 14.98826 33503 ft 475 kts 192°
2026-05-04 13:44 -36.08209 14.98099 33799 ft 472 kts 193°
2026-05-04 13:44 -36.11408 14.97347 34031 ft 471 kts 194°
2026-05-04 13:44 -36.14650 14.96568 34153 ft 472 kts 194°
2026-05-04 13:45 -36.17885 14.95785 34284 ft 472 kts 194°
2026-05-04 13:45 -36.21077 14.95014 34425 ft 472 kts 194°
2026-05-04 13:45 -36.24321 14.94234 34541 ft 473 kts 193°
2026-05-04 13:45 -36.27557 14.93459 34699 ft 472 kts 194°
2026-05-04 13:46 -36.30761 14.92693 34843 ft 472 kts 193°
2026-05-04 13:46 -36.33967 14.91928 34955 ft 473 kts 193°
2026-05-04 13:46 -36.40446 14.90380 34952 ft 473 kts 193°
2026-05-04 13:47 -36.45805 14.89100 34950 ft 471 kts 193°
2026-05-04 13:47 -36.52248 14.87555 34953 ft 471 kts 193°
2026-05-04 13:48 -36.58672 14.86012 34949 ft 469 kts 193°
2026-05-04 13:48 -36.65059 14.84477 34950 ft 468 kts 193°
2026-05-04 13:49 -36.71447 14.82937 34942 ft 468 kts 194°
2026-05-04 13:49 -36.77843 14.81393 34944 ft 468 kts 193°
2026-05-04 13:50 -36.84259 14.79842 34942 ft 467 kts 192°
2026-05-04 13:50 -36.90615 14.78303 34934 ft 467 kts 193°
2026-05-04 13:51 -36.96982 14.76759 34938 ft 467 kts 192°
2026-05-04 13:51 -37.03372 14.75206 34935 ft 467 kts 192°
2026-05-04 13:52 -37.12910 14.72885 34928 ft 464 kts 192°
2026-05-04 13:53 -37.19235 14.71340 34915 ft 463 kts 192°
2026-05-04 13:53 -37.25561 14.69793 34931 ft 464 kts 193°
2026-05-04 13:54 -37.35034 14.67472 34918 ft 461 kts 192°
2026-05-04 13:55 -37.44465 14.65157 34914 ft 461 kts 192°
2026-05-04 13:55 -37.53886 14.62837 34922 ft 459 kts 192°
2026-05-04 13:56 -37.60089 14.61306 34930 ft 456 kts 192°
2026-05-04 13:57 -37.69443 14.58993 34922 ft 456 kts 192°
2026-05-04 13:58 -37.81863 14.55913 34920 ft 453 kts 192°
2026-05-04 13:58 -37.91118 14.53610 34919 ft 453 kts 192°
2026-05-04 13:59 -37.97310 14.52067 34931 ft 453 kts 192°
2026-05-04 14:00 -38.06574 14.49752 34951 ft 453 kts 192°
2026-05-04 14:00 -38.15792 14.47441 34943 ft 453 kts 192°
2026-05-04 14:01 -38.21972 14.45891 34946 ft 452 kts 192°
2026-05-04 14:02 -38.31178 14.43574 34955 ft 448 kts 191°
2026-05-04 14:02 -38.37300 14.42032 34948 ft 448 kts 191°
2026-05-04 14:03 -38.43424 14.40486 34958 ft 449 kts 191°
2026-05-04 14:03 -38.49529 14.38941 34961 ft 447 kts 191°
2026-05-04 14:04 -38.58691 14.36619 34964 ft 447 kts 191°
2026-05-04 14:04 -38.64788 14.35069 34973 ft 447 kts 191°
2026-05-04 14:05 -38.73927 14.32742 34984 ft 446 kts 191°
2026-05-04 14:06 -38.80010 14.31190 34990 ft 447 kts 191°
2026-05-04 14:06 -38.86082 14.29638 34996 ft 446 kts 191°
2026-05-04 14:07 -38.92204 14.28070 34994 ft 446 kts 191°
2026-05-04 14:07 -38.98242 14.26521 35001 ft 446 kts 191°
2026-05-04 14:08 -39.04351 14.24951 35009 ft 445 kts 191°
2026-05-04 14:08 -39.10414 14.23391 35002 ft 445 kts 190°
2026-05-04 14:09 -39.19517 14.21041 35016 ft 443 kts 190°
2026-05-04 14:10 -39.28532 14.18708 35026 ft 440 kts 190°
2026-05-04 14:10 -39.34532 14.17154 35025 ft 441 kts 190°
2026-05-04 14:11 -39.40548 14.15593 35029 ft 440 kts 190°
2026-05-04 14:11 -39.49517 14.13258 35036 ft 439 kts 190°
2026-05-04 14:12 -39.55506 14.11696 35036 ft 439 kts 190°
2026-05-04 14:13 -39.64494 14.09347 35043 ft 439 kts 189°
2026-05-04 14:13 -39.70478 14.07779 35051 ft 439 kts 190°
2026-05-04 14:14 -39.76444 14.06213 35060 ft 439 kts 190°
2026-05-04 14:14 -39.85422 14.03852 35072 ft 439 kts 189°
2026-05-04 14:15 -39.97365 14.00701 35085 ft 438 kts 189°
2026-05-04 14:16 -40.06363 13.98633 35084 ft 437 kts 186°
2026-05-04 14:17 -40.15402 13.97108 35088 ft 435 kts 186°
2026-05-04 14:18 -40.24380 13.95491 35086 ft 435 kts 186°
2026-05-04 14:19 -40.36365 13.93252 35088 ft 435 kts 186°
2026-05-04 14:19 -40.42339 13.92134 35108 ft 435 kts 186°
2026-05-04 14:20 -40.48320 13.91014 35109 ft 435 kts 186°
2026-05-04 14:20 -40.54295 13.89893 35112 ft 434 kts 186°
2026-05-04 14:21 -40.63256 13.88208 35121 ft 432 kts 186°
2026-05-04 14:21 -40.69167 13.87095 35128 ft 432 kts 186°
2026-05-04 14:22 -40.75109 13.85974 35124 ft 431 kts 186°
2026-05-04 14:22 -40.81053 13.84848 35129 ft 427 kts 186°
2026-05-04 14:23 -40.89796 13.83191 35142 ft 423 kts 186°
2026-05-04 14:24 -40.95601 13.82090 35146 ft 423 kts 186°
2026-05-04 14:24 -41.01409 13.80985 35145 ft 422 kts 186°
2026-05-04 14:25 -41.07218 13.79878 35152 ft 421 kts 186°
2026-05-04 14:25 -41.15936 13.78214 35160 ft 421 kts 186°
2026-05-04 14:26 -41.21712 13.77107 35171 ft 419 kts 186°
2026-05-04 14:26 -41.27466 13.76003 35172 ft 419 kts 186°
2026-05-04 14:27 -41.33232 13.74896 35178 ft 419 kts 186°
2026-05-04 14:27 -41.38982 13.73789 35181 ft 418 kts 185°
2026-05-04 14:28 -41.44726 13.72681 35180 ft 416 kts 185°
2026-05-04 14:28 -41.50452 13.71575 35192 ft 416 kts 185°
2026-05-04 14:29 -41.61897 13.69359 35195 ft 415 kts 185°
2026-05-04 14:30 -41.67583 13.68254 35204 ft 413 kts 185°
2026-05-04 14:31 -41.76084 13.66600 35208 ft 413 kts 185°
2026-05-04 14:32 -41.87422 13.64386 35216 ft 410 kts 185°
2026-05-04 14:32 -41.93063 13.63282 35223 ft 410 kts 185°
2026-05-04 14:33 -41.98680 13.62181 35229 ft 410 kts 185°
2026-05-04 14:33 -42.04308 13.61075 35227 ft 409 kts 185°
2026-05-04 14:34 -42.09956 13.59963 35233 ft 408 kts 185°
2026-05-04 14:34 -42.15555 13.58859 35240 ft 408 kts 185°
2026-05-04 14:35 -42.21151 13.57754 35237 ft 408 kts 185°
2026-05-04 14:35 -42.26747 13.56645 35245 ft 405 kts 185°
2026-05-04 14:36 -42.32311 13.55542 35241 ft 404 kts 185°
2026-05-04 14:36 -42.37900 13.54433 35245 ft 404 kts 185°
2026-05-04 14:37 -42.43434 13.53333 35250 ft 404 kts 185°
2026-05-04 14:37 -42.48985 13.52227 35250 ft 404 kts 185°
2026-05-04 14:38 -42.54546 13.51117 35253 ft 404 kts 185°
2026-05-04 14:38 -42.60126 13.50000 35258 ft 404 kts 185°
2026-05-04 14:39 -42.65644 13.48896 35256 ft 400 kts 184°
2026-05-04 14:39 -42.71127 13.47792 35264 ft 395 kts 184°
2026-05-04 14:40 -42.79271 13.46154 35268 ft 395 kts 184°
2026-05-04 14:40 -42.84723 13.45056 35265 ft 395 kts 184°
2026-05-04 14:41 -42.90160 13.43957 35275 ft 394 kts 184°
2026-05-04 14:42 -43.00985 13.41765 35279 ft 393 kts 184°
2026-05-04 14:42 -43.06361 13.40674 35283 ft 393 kts 184°
2026-05-04 14:43 -43.11762 13.39575 35283 ft 392 kts 184°
2026-05-04 14:43 -43.17173 13.38472 35287 ft 392 kts 184°
2026-05-04 14:44 -43.22554 13.37374 35293 ft 392 kts 184°
2026-05-04 14:44 -43.27955 13.36269 35291 ft 391 kts 184°
2026-05-04 14:45 -43.33312 13.35171 35298 ft 391 kts 184°
2026-05-04 14:45 -43.38704 13.34065 35303 ft 391 kts 184°
2026-05-04 14:46 -43.44047 13.32966 35306 ft 391 kts 184°
2026-05-04 14:46 -43.49365 13.31871 35309 ft 390 kts 184°
2026-05-04 14:47 -43.54741 13.30762 35314 ft 390 kts 184°
2026-05-04 14:47 -43.60104 13.29653 35314 ft 390 kts 184°
2026-05-04 14:48 -43.65486 13.28538 35304 ft 390 kts 184°
2026-05-04 14:48 -43.70860 13.27423 35320 ft 390 kts 184°
2026-05-04 14:49 -43.76212 13.26311 35328 ft 390 kts 184°
2026-05-04 14:49 -43.81581 13.25193 35330 ft 390 kts 184°
2026-05-04 14:50 -43.86944 13.24074 35328 ft 390 kts 184°
2026-05-04 14:50 -43.92307 13.22953 35329 ft 390 kts 184°
2026-05-04 14:51 -43.97644 13.21836 35328 ft 390 kts 184°
2026-05-04 14:51 -44.03007 13.20711 35329 ft 390 kts 184°
2026-05-04 14:52 -44.08379 13.19582 35345 ft 389 kts 184°
2026-05-04 14:52 -44.13725 13.18456 35339 ft 389 kts 184°
2026-05-04 14:53 -44.19070 13.17329 35342 ft 389 kts 184°
2026-05-04 14:53 -44.24383 13.16207 35354 ft 389 kts 185°
2026-05-04 14:54 -44.29724 13.15076 35334 ft 388 kts 185°
2026-05-04 14:54 -44.35059 13.13944 35347 ft 388 kts 185°
2026-05-04 14:55 -44.40388 13.12812 35352 ft 387 kts 185°
2026-05-04 14:55 -44.45709 13.11680 35352 ft 387 kts 185°
2026-05-04 14:56 -44.51062 13.10539 35355 ft 387 kts 185°
2026-05-04 14:56 -44.56350 13.09409 35357 ft 388 kts 185°
2026-05-04 14:57 -44.61683 13.08267 35357 ft 388 kts 185°
2026-05-04 14:57 -44.67014 13.07124 35360 ft 387 kts 185°
2026-05-04 14:58 -44.71445 13.06172 35365 ft 387 kts 185°
2026-05-04 14:58 -44.76765 13.05028 35366 ft 387 kts 185°
2026-05-04 14:59 -44.82099 13.03878 35371 ft 387 kts 185°
2026-05-04 15:00 -44.90068 13.02156 35374 ft 386 kts 185°
2026-05-04 15:00 -44.95370 13.01009 35376 ft 386 kts 185°
2026-05-04 15:01 -45.03357 13.00019 35381 ft 383 kts 179°
2026-05-04 15:01 -45.08674 12.99967 35377 ft 383 kts 178°
2026-05-04 15:02 -45.13997 12.99980 35383 ft 383 kts 178°
2026-05-04 15:02 -45.19355 12.99995 35384 ft 383 kts 178°
2026-05-04 15:03 -45.24674 13.00001 35387 ft 383 kts 178°
2026-05-04 15:03 -45.30006 13.00001 35392 ft 383 kts 178°
2026-05-04 15:04 -45.35338 13.00000 35386 ft 383 kts 178°
2026-05-04 15:04 -45.40662 13.00000 35386 ft 383 kts 178°
2026-05-04 15:05 -45.45996 13.00000 35389 ft 383 kts 178°
2026-05-04 15:05 -45.51312 13.00000 35399 ft 383 kts 178°
2026-05-04 15:06 -45.56636 13.00000 35398 ft 383 kts 178°
2026-05-04 15:07 -45.64638 13.00000 35369 ft 383 kts 178°
2026-05-04 15:07 -45.69944 12.99999 35398 ft 383 kts 178°
2026-05-04 15:08 -45.75269 13.00000 35402 ft 383 kts 178°
2026-05-04 15:08 -45.80609 13.00000 35404 ft 383 kts 178°
2026-05-04 15:09 -45.85936 13.00000 35406 ft 383 kts 178°
2026-05-04 15:09 -45.91261 13.00000 35409 ft 383 kts 178°
2026-05-04 15:10 -45.99229 13.00000 35412 ft 383 kts 178°
2026-05-04 15:11 -46.07197 13.00000 35411 ft 383 kts 179°
2026-05-04 15:11 -46.12547 13.00000 35411 ft 383 kts 179°
2026-05-04 15:12 -46.17859 13.00000 35412 ft 383 kts 179°
2026-05-04 15:12 -46.23162 13.00000 35413 ft 383 kts 179°
2026-05-04 15:13 -46.28482 13.00000 35415 ft 383 kts 179°
2026-05-04 15:13 -46.33804 13.00000 35417 ft 382 kts 179°
2026-05-04 15:14 -46.39120 13.00000 35417 ft 382 kts 179°
2026-05-04 15:14 -46.44451 13.00000 35416 ft 383 kts 179°
2026-05-04 15:15 -46.49775 13.00000 35415 ft 383 kts 179°
2026-05-04 15:15 -46.55092 13.00000 35425 ft 383 kts 179°
2026-05-04 15:16 -46.63068 13.00000 35419 ft 383 kts 179°
2026-05-04 15:17 -46.71062 13.00000 35424 ft 383 kts 179°
2026-05-04 15:17 -46.79015 13.00000 35423 ft 383 kts 179°
2026-05-04 15:18 -46.84336 13.00000 35433 ft 383 kts 179°
2026-05-04 15:19 -46.92340 13.00000 35433 ft 383 kts 179°
2026-05-04 15:19 -47.00316 13.00000 35435 ft 383 kts 179°
2026-05-04 15:20 -47.05643 13.00000 35429 ft 383 kts 179°
2026-05-04 15:20 -47.10956 13.00000 35424 ft 382 kts 179°
2026-05-04 15:21 -47.16276 13.00000 35425 ft 382 kts 179°
2026-05-04 15:22 -47.24237 13.00000 35441 ft 382 kts 179°
2026-05-04 15:22 -47.32230 13.00000 35432 ft 382 kts 180°
2026-05-04 15:23 -47.37523 13.00000 35434 ft 382 kts 180°
2026-05-04 15:23 -47.42869 13.00000 35394 ft 382 kts 180°
2026-05-04 15:24 -47.53500 13.00000 35444 ft 384 kts 180°
2026-05-04 15:25 -47.58860 13.00000 35435 ft 384 kts 180°
2026-05-04 15:26 -47.66839 13.00000 35442 ft 384 kts 180°
2026-05-04 15:26 -47.74858 13.00001 35439 ft 384 kts 180°
2026-05-04 15:27 -47.82876 13.00000 35441 ft 384 kts 180°
2026-05-04 15:28 -47.90867 13.00000 35442 ft 384 kts 180°
2026-05-04 15:29 -47.98860 13.00000 35446 ft 384 kts 180°
2026-05-04 15:30 -48.17506 13.00001 35441 ft 383 kts 180°
2026-05-04 15:31 -48.25515 13.00000 35442 ft 384 kts 180°
2026-05-04 15:32 -48.38856 13.00000 35433 ft 384 kts 180°
2026-05-04 15:34 -48.52263 13.00000 35441 ft 386 kts 181°
2026-05-04 15:34 -48.60319 13.00000 35437 ft 386 kts 181°
2026-05-04 15:35 -48.68385 13.00000 35446 ft 386 kts 181°
2026-05-04 15:36 -48.76414 13.00000 35443 ft 386 kts 181°
2026-05-04 15:36 -48.81810 13.00001 35440 ft 386 kts 181°
2026-05-04 15:37 -48.87183 13.00001 35443 ft 387 kts 181°
2026-05-04 15:37 -48.92556 13.00000 35441 ft 387 kts 181°
2026-05-04 15:38 -48.97940 13.00000 35448 ft 387 kts 181°
2026-05-04 15:38 -49.03293 13.00000 35454 ft 387 kts 181°
2026-05-04 15:39 -49.08674 13.00000 35448 ft 387 kts 181°
2026-05-04 15:40 -49.16738 13.00000 35446 ft 387 kts 181°
2026-05-04 15:40 -49.22126 13.00000 35441 ft 387 kts 181°
2026-05-04 15:41 -49.27512 13.00001 35442 ft 387 kts 181°
2026-05-04 15:41 -49.32868 13.00001 35443 ft 387 kts 181°
2026-05-04 15:42 -49.38283 13.00000 35437 ft 387 kts 181°
2026-05-04 15:42 -49.43632 13.00000 35445 ft 387 kts 181°
2026-05-04 15:43 -49.49012 13.00001 35442 ft 387 kts 181°
2026-05-04 15:43 -49.54408 13.00001 35441 ft 386 kts 181°
2026-05-04 15:44 -49.59779 13.00000 35443 ft 386 kts 181°
2026-05-04 15:44 -49.65141 13.00000 35444 ft 387 kts 181°
2026-05-04 15:45 -49.70518 13.00000 35446 ft 387 kts 181°
2026-05-04 15:45 -49.75884 13.00001 35441 ft 387 kts 181°
2026-05-04 15:46 -49.81264 13.00000 35437 ft 387 kts 181°
2026-05-04 15:46 -49.86632 13.00000 35438 ft 387 kts 181°
2026-05-04 15:47 -49.92007 13.00000 35452 ft 387 kts 182°
2026-05-04 15:47 -49.97381 13.00001 35438 ft 386 kts 182°
2026-05-04 15:48 -50.02758 13.00001 35439 ft 386 kts 182°
2026-05-04 15:48 -50.10813 13.00000 35439 ft 386 kts 182°
2026-05-04 15:49 -50.16200 13.00000 35445 ft 386 kts 182°
2026-05-04 15:49 -50.21570 13.00000 35438 ft 386 kts 182°
2026-05-04 15:50 -50.26938 13.00000 35435 ft 386 kts 182°
2026-05-04 15:50 -50.32290 13.00000 35414 ft 386 kts 182°
2026-05-04 15:51 -50.37698 12.99999 35433 ft 388 kts 182°
2026-05-04 15:51 -50.43095 13.00000 35432 ft 388 kts 182°
2026-05-04 15:52 -50.48489 13.00000 35433 ft 388 kts 182°
2026-05-04 15:52 -50.53882 13.00000 35427 ft 388 kts 182°
2026-05-04 15:53 -50.59261 13.00000 35430 ft 388 kts 182°
2026-05-04 15:53 -50.64669 13.00000 35431 ft 388 kts 182°
2026-05-04 15:54 -50.70053 13.00000 35427 ft 388 kts 182°
2026-05-04 15:54 -50.75436 13.00000 35427 ft 388 kts 182°
2026-05-04 15:55 -50.80808 13.00000 35427 ft 388 kts 182°
2026-05-04 15:55 -50.86207 13.00000 35427 ft 388 kts 182°
2026-05-04 15:56 -50.91601 13.00000 35425 ft 388 kts 182°
2026-05-04 15:56 -50.96999 13.00000 35425 ft 388 kts 182°
2026-05-04 15:57 -51.02398 13.00000 35428 ft 388 kts 182°
2026-05-04 15:57 -51.07784 13.00000 35428 ft 388 kts 182°
2026-05-04 15:58 -51.13162 13.00000 35425 ft 387 kts 183°
2026-05-04 15:58 -51.18564 13.00000 35422 ft 387 kts 183°
2026-05-04 15:59 -51.23952 13.00000 35422 ft 387 kts 183°
2026-05-04 15:59 -51.29335 13.00000 35419 ft 387 kts 183°
2026-05-04 16:00 -51.34694 13.00000 35402 ft 387 kts 183°
2026-05-04 16:00 -51.40127 12.99999 35416 ft 390 kts 183°
2026-05-04 16:01 -51.45529 12.99998 35415 ft 391 kts 183°
2026-05-04 16:01 -51.50962 12.99999 35413 ft 391 kts 183°
2026-05-04 16:02 -51.56402 13.00000 35439 ft 391 kts 184°
2026-05-04 16:03 -51.64558 13.00001 35414 ft 390 kts 183°
2026-05-04 16:03 -51.69998 13.00000 35411 ft 390 kts 183°
2026-05-04 16:04 -51.75419 13.00000 35411 ft 390 kts 183°
2026-05-04 16:04 -51.83548 13.00000 35412 ft 390 kts 184°
2026-05-04 16:05 -51.88989 13.00000 35406 ft 390 kts 184°
2026-05-04 16:06 -51.97095 13.00000 35399 ft 390 kts 184°
2026-05-04 16:07 -52.07962 13.00000 35405 ft 389 kts 184°
2026-05-04 16:08 -52.18776 13.00000 35393 ft 389 kts 184°
2026-05-04 16:09 -52.32306 13.00000 35399 ft 389 kts 184°
2026-05-04 16:10 -52.43098 12.99998 35392 ft 392 kts 184°
2026-05-04 16:11 -52.54028 12.99998 35402 ft 393 kts 185°
2026-05-04 16:12 -52.69537 13.00000 35382 ft 393 kts 185°
2026-05-04 16:13 -52.80428 13.00000 35393 ft 393 kts 185°
2026-05-04 16:14 -52.91359 13.00000 35375 ft 392 kts 185°
2026-05-04 16:16 -53.04959 13.00000 35386 ft 392 kts 185°
2026-05-04 16:17 -53.18551 13.00000 35371 ft 391 kts 185°
2026-05-04 16:18 -53.29441 13.00000 35362 ft 391 kts 185°
2026-05-04 16:19 -53.43035 13.00000 35360 ft 391 kts 185°
2026-05-04 16:20 -53.56720 12.99994 35355 ft 398 kts 186°
2026-05-04 16:22 -53.70569 13.00000 35346 ft 398 kts 186°
2026-05-04 16:23 -53.87108 13.00000 35339 ft 397 kts 186°
2026-05-04 16:25 -54.03699 13.00000 35332 ft 397 kts 186°
2026-05-04 16:26 -54.22991 13.00000 35326 ft 396 kts 186°
2026-05-04 16:28 -54.36755 13.00000 35318 ft 396 kts 186°
2026-05-04 16:29 -54.56012 13.00000 35316 ft 396 kts 186°
2026-05-04 16:31 -54.69866 12.99996 35309 ft 401 kts 186°
2026-05-04 16:32 -54.86589 13.00001 35300 ft 400 kts 187°
2026-05-04 16:33 -54.97714 13.00000 35291 ft 400 kts 187°
2026-05-04 16:34 -55.05955 12.98980 35291 ft 396 kts 191°
2026-05-04 16:35 -55.22372 12.96080 35280 ft 396 kts 192°
2026-05-04 16:36 -55.30577 12.94627 35281 ft 396 kts 192°
2026-05-04 16:37 -55.38803 12.93168 35281 ft 396 kts 192°
2026-05-04 16:38 -55.49757 12.91214 35266 ft 396 kts 192°
2026-05-04 16:39 -55.63498 12.88744 35255 ft 399 kts 192°
2026-05-04 16:40 -55.74554 12.86750 35247 ft 400 kts 192°
2026-05-04 16:41 -55.88351 12.84242 35245 ft 400 kts 192°
2026-05-04 16:43 -56.02185 12.81709 35237 ft 400 kts 192°
2026-05-04 16:43 -56.10494 12.80178 35238 ft 400 kts 192°
2026-05-04 16:45 -56.27090 12.77102 35223 ft 400 kts 192°
2026-05-04 16:46 -56.40913 12.74519 35201 ft 401 kts 192°
2026-05-04 16:47 -56.52074 12.72416 35211 ft 404 kts 192°
2026-05-04 16:48 -56.63235 12.70307 35203 ft 404 kts 192°
2026-05-04 16:49 -56.74405 12.68181 35218 ft 404 kts 192°
2026-05-04 16:50 -56.85578 12.66041 35195 ft 405 kts 192°
2026-05-04 16:51 -56.93976 12.64425 35195 ft 405 kts 192°
2026-05-04 16:52 -57.05185 12.62256 35191 ft 404 kts 192°
2026-05-04 16:53 -57.13556 12.60628 35182 ft 405 kts 192°
2026-05-04 16:54 -57.24766 12.58435 35177 ft 405 kts 192°
2026-05-04 16:55 -57.41603 12.55114 35168 ft 408 kts 193°
2026-05-04 16:56 -57.55710 12.52312 35156 ft 408 kts 193°
2026-05-04 16:57 -57.64175 12.50619 35151 ft 408 kts 193°
2026-05-04 16:58 -57.75449 12.48352 35146 ft 408 kts 193°
2026-05-04 17:00 -57.92354 12.44926 35139 ft 407 kts 193°
2026-05-04 17:01 -58.06427 12.42048 35130 ft 407 kts 193°
2026-05-04 17:02 -58.17697 12.39727 35109 ft 407 kts 193°
2026-05-04 17:03 -58.26169 12.37970 35115 ft 410 kts 193°
2026-05-04 17:03 -58.34652 12.36206 35111 ft 410 kts 193°
2026-05-04 17:04 -58.45989 12.33835 35129 ft 410 kts 193°
2026-05-04 17:05 -58.57313 12.31451 35102 ft 409 kts 193°
2026-05-04 17:06 -58.65775 12.29658 35101 ft 409 kts 193°
2026-05-04 17:07 -58.73312 12.28054 35101 ft 409 kts 193°
2026-05-04 17:07 -58.79893 12.26648 35091 ft 409 kts 193°
2026-05-04 17:08 -58.88373 12.24828 35092 ft 409 kts 193°
2026-05-04 17:09 -58.94026 12.23610 35089 ft 409 kts 193°
2026-05-04 17:09 -58.99692 12.22385 35083 ft 409 kts 193°
2026-05-04 17:10 -59.13784 12.19322 35081 ft 408 kts 194°
2026-05-04 17:11 -59.19397 12.18093 35073 ft 408 kts 193°
2026-05-04 17:12 -59.27849 12.16237 35062 ft 408 kts 194°
2026-05-04 17:13 -59.41939 12.13123 35051 ft 407 kts 194°
2026-05-04 17:14 -59.53177 12.10618 35057 ft 407 kts 194°
2026-05-04 17:15 -59.61600 12.08731 35089 ft 407 kts 194°
2026-05-04 17:16 -59.72833 12.06201 35045 ft 406 kts 194°
2026-05-04 17:17 -59.84041 12.03656 35039 ft 405 kts 194°
2026-05-04 17:18 -59.95208 12.01105 35035 ft 405 kts 194°
2026-05-04 17:18 -59.99869 12.00038 35356 ft 402 kts 194°
2026-05-04 17:19 -60.05444 11.98941 35659 ft 405 kts 193°
2026-05-04 17:19 -60.11055 11.98058 36130 ft 402 kts 193°
2026-05-04 17:20 -60.16605 11.97175 36566 ft 399 kts 193°
2026-05-04 17:20 -60.22112 11.96251 37009 ft 397 kts 194°
2026-05-04 17:20 -60.24853 11.95777 37015 ft 399 kts 194°
2026-05-04 17:21 -60.35838 11.93879 37009 ft 396 kts 194°
2026-05-04 17:22 -60.41337 11.92923 37010 ft 395 kts 194°
2026-05-04 17:23 -60.52270 11.91019 37031 ft 396 kts 194°
2026-05-04 17:24 -60.60510 11.89577 36999 ft 395 kts 194°
2026-05-04 17:25 -60.71437 11.87652 36985 ft 395 kts 194°
2026-05-04 17:26 -60.82373 11.85712 36996 ft 395 kts 194°
2026-05-04 17:27 -60.96047 11.83268 36967 ft 394 kts 194°
2026-05-04 17:28 -61.06988 11.81297 36959 ft 395 kts 195°
2026-05-04 17:29 -61.23460 11.78304 36955 ft 396 kts 195°
2026-05-04 17:31 -61.37165 11.75790 36943 ft 396 kts 195°
2026-05-04 17:32 -61.50897 11.73249 36941 ft 396 kts 195°
2026-05-04 17:33 -61.61858 11.71204 36939 ft 396 kts 195°
2026-05-04 17:34 -61.72812 11.69146 36928 ft 396 kts 195°
2026-05-04 17:35 -61.86537 11.66546 36925 ft 396 kts 195°
2026-05-04 17:36 -61.92015 11.65502 36915 ft 395 kts 195°
2026-05-04 17:36 -61.97481 11.64457 36917 ft 395 kts 195°
2026-05-04 17:37 -62.02966 11.63404 36918 ft 395 kts 195°
2026-05-04 17:37 -62.08430 11.62351 36915 ft 396 kts 196°
2026-05-04 17:38 -62.13942 11.61280 36899 ft 398 kts 197°
2026-05-04 17:38 -62.19437 11.60211 36900 ft 398 kts 196°
2026-05-04 17:39 -62.27730 11.58600 36900 ft 398 kts 196°
2026-05-04 17:39 -62.33224 11.57526 36892 ft 398 kts 197°
2026-05-04 17:40 -62.38754 11.56438 36891 ft 399 kts 197°
2026-05-04 17:40 -62.44298 11.55342 36887 ft 399 kts 197°
2026-05-04 17:41 -62.49829 11.54247 36883 ft 399 kts 197°
2026-05-04 17:41 -62.55347 11.53152 36876 ft 399 kts 197°
2026-05-04 17:42 -62.60869 11.52050 36877 ft 399 kts 197°
2026-05-04 17:42 -62.66389 11.50944 36911 ft 399 kts 197°
2026-05-04 17:43 -62.71927 11.49829 36868 ft 400 kts 197°
2026-05-04 17:43 -62.77476 11.48709 36868 ft 400 kts 197°
2026-05-04 17:44 -62.83021 11.47587 36865 ft 400 kts 197°
2026-05-04 17:44 -62.88560 11.46462 36865 ft 400 kts 197°
2026-05-04 17:45 -62.94095 11.45332 36858 ft 400 kts 197°
2026-05-04 17:45 -62.99637 11.44197 36864 ft 400 kts 197°
2026-05-04 17:46 -63.05200 11.43051 36849 ft 401 kts 197°
2026-05-04 17:46 -63.10751 11.41905 36849 ft 401 kts 197°
2026-05-04 17:47 -63.16282 11.40759 36842 ft 401 kts 197°
2026-05-04 17:47 -63.21870 11.39597 36843 ft 403 kts 198°
2026-05-04 17:48 -63.27470 11.38422 36842 ft 405 kts 198°
2026-05-04 17:48 -63.33052 11.37252 36833 ft 406 kts 198°
2026-05-04 17:49 -63.38714 11.36060 36835 ft 407 kts 198°
2026-05-04 17:49 -63.44337 11.34875 36827 ft 407 kts 198°
2026-05-04 17:50 -63.49978 11.33681 36821 ft 407 kts 198°
2026-05-04 17:50 -63.55574 11.32489 36815 ft 407 kts 198°
2026-05-04 17:51 -63.61226 11.31280 36854 ft 407 kts 198°
2026-05-04 17:51 -63.66872 11.30065 36815 ft 408 kts 198°
2026-05-04 17:52 -63.72494 11.28852 36815 ft 408 kts 198°
2026-05-04 17:52 -63.78154 11.27629 36814 ft 409 kts 198°
2026-05-04 17:53 -63.83831 11.26397 36804 ft 408 kts 198°
2026-05-04 17:53 -63.89493 11.25162 36804 ft 408 kts 198°
2026-05-04 17:54 -63.95113 11.23930 36801 ft 409 kts 198°
2026-05-04 17:54 -64.00813 11.22675 36798 ft 409 kts 198°
2026-05-04 17:55 -64.06447 11.21431 36794 ft 409 kts 198°
2026-05-04 17:55 -64.12130 11.20172 36794 ft 409 kts 198°
2026-05-04 17:56 -64.17781 11.18914 36797 ft 409 kts 198°
2026-05-04 17:56 -64.23447 11.17647 36788 ft 409 kts 198°
2026-05-04 17:57 -64.28192 11.16582 36769 ft 409 kts 198°
2026-05-04 17:57 -64.34842 11.15067 36781 ft 417 kts 198°
2026-05-04 17:58 -64.40634 11.13754 36777 ft 418 kts 198°
2026-05-04 17:58 -64.46403 11.12456 36772 ft 417 kts 198°
2026-05-04 17:59 -64.52173 11.11145 36774 ft 417 kts 198°
2026-05-04 18:00 -64.60844 11.09153 36775 ft 417 kts 198°
2026-05-04 18:00 -64.66642 11.07815 36771 ft 417 kts 198°
2026-05-04 18:01 -64.72427 11.06474 36760 ft 417 kts 198°
2026-05-04 18:01 -64.78202 11.05130 36760 ft 417 kts 198°
2026-05-04 18:02 -64.86840 11.03109 36760 ft 417 kts 198°
2026-05-04 18:02 -64.92612 11.01752 36760 ft 417 kts 198°
2026-05-04 18:03 -64.98415 11.00381 36753 ft 417 kts 198°
2026-05-04 18:03 -65.04208 10.99141 36752 ft 420 kts 197°
2026-05-04 18:04 -65.10041 10.98250 36752 ft 421 kts 196°
2026-05-04 18:05 -65.18797 10.96930 36743 ft 420 kts 197°
2026-05-04 18:05 -65.24610 10.95988 36746 ft 420 kts 197°
2026-05-04 18:06 -65.33337 10.94538 36744 ft 420 kts 197°
2026-05-04 18:06 -65.39169 10.93564 36740 ft 419 kts 197°
2026-05-04 18:07 -65.44991 10.92590 36727 ft 420 kts 197°
2026-05-04 18:07 -65.50854 10.91588 36734 ft 427 kts 197°
2026-05-04 18:08 -65.56787 10.90584 36733 ft 428 kts 197°
2026-05-04 18:08 -65.62739 10.89591 36730 ft 427 kts 197°
2026-05-04 18:09 -65.74582 10.87576 36716 ft 427 kts 197°
2026-05-04 18:10 -65.80511 10.86556 36716 ft 427 kts 197°
2026-05-04 18:10 -65.86423 10.85536 36717 ft 427 kts 197°
2026-05-04 18:11 -65.92339 10.84510 36712 ft 427 kts 197°
2026-05-04 18:11 -65.98260 10.83479 36713 ft 426 kts 197°
2026-05-04 18:12 -66.04211 10.82436 36713 ft 427 kts 197°
2026-05-04 18:12 -66.10122 10.81396 36714 ft 427 kts 197°
2026-05-04 18:13 -66.16034 10.80351 36714 ft 427 kts 197°
2026-05-04 18:14 -66.24901 10.78777 36702 ft 426 kts 197°
2026-05-04 18:14 -66.29809 10.77901 36705 ft 426 kts 197°
2026-05-04 18:15 -66.41637 10.75770 36710 ft 426 kts 197°
2026-05-04 18:16 -66.47526 10.74703 36708 ft 426 kts 197°
2026-05-04 18:16 -66.53289 10.73653 36761 ft 426 kts 197°
2026-05-04 18:17 -66.62070 10.72054 36701 ft 423 kts 197°
2026-05-04 18:18 -66.70862 10.70428 36685 ft 423 kts 197°
2026-05-04 18:18 -66.76774 10.69320 36703 ft 422 kts 197°
2026-05-04 18:19 -66.85598 10.67669 36708 ft 428 kts 197°
2026-05-04 18:19 -66.91511 10.66562 36709 ft 426 kts 197°
2026-05-04 18:20 -66.97401 10.65465 36708 ft 425 kts 197°
2026-05-04 18:20 -67.03298 10.64345 36707 ft 425 kts 197°
2026-05-04 18:21 -67.09184 10.63221 36711 ft 425 kts 197°
2026-05-04 18:21 -67.15097 10.62087 36711 ft 425 kts 197°
2026-05-04 18:22 -67.20986 10.60953 36739 ft 425 kts 197°
2026-05-04 18:22 -67.26846 10.59828 36711 ft 422 kts 197°
2026-05-04 18:23 -67.32723 10.58687 36704 ft 422 kts 197°
2026-05-04 18:23 -67.38567 10.57540 36698 ft 422 kts 197°
2026-05-04 18:24 -67.44436 10.56386 36713 ft 422 kts 197°
2026-05-04 18:24 -67.50285 10.55233 36713 ft 422 kts 197°
2026-05-04 18:25 -67.56137 10.54074 36707 ft 421 kts 197°
2026-05-04 18:25 -67.61925 10.52932 36714 ft 418 kts 197°
2026-05-04 18:26 -67.67738 10.51767 36713 ft 418 kts 197°
2026-05-04 18:26 -67.73523 10.50596 36705 ft 418 kts 197°
2026-05-04 18:27 -67.79350 10.49415 36705 ft 418 kts 197°
2026-05-04 18:27 -67.85152 10.48237 36705 ft 419 kts 197°
2026-05-04 18:28 -67.90948 10.47056 36706 ft 417 kts 196°
2026-05-04 18:28 -67.96699 10.45886 36708 ft 415 kts 196°
2026-05-04 18:29 -68.02447 10.44695 36710 ft 417 kts 197°
2026-05-04 18:29 -68.08316 10.43449 36707 ft 424 kts 197°
2026-05-04 18:30 -68.17121 10.41624 36716 ft 424 kts 196°
2026-05-04 18:31 -68.23037 10.40394 36715 ft 424 kts 197°
2026-05-04 18:31 -68.28885 10.39162 36705 ft 424 kts 197°
2026-05-04 18:32 -68.34777 10.37912 36703 ft 424 kts 197°
2026-05-04 18:32 -68.40658 10.36657 36705 ft 425 kts 197°
2026-05-04 18:33 -68.46543 10.35395 36707 ft 425 kts 197°
2026-05-04 18:33 -68.52440 10.34125 36708 ft 425 kts 197°
2026-05-04 18:34 -68.58310 10.32857 36709 ft 422 kts 196°
2026-05-04 18:34 -68.64148 10.31598 36712 ft 420 kts 196°
2026-05-04 18:35 -68.69966 10.30320 36717 ft 420 kts 197°
2026-05-04 18:35 -68.75821 10.29024 36717 ft 420 kts 197°
2026-05-04 18:36 -68.81649 10.27733 36709 ft 420 kts 197°
2026-05-04 18:36 -68.87473 10.26438 36711 ft 420 kts 197°
2026-05-04 18:37 -68.93274 10.25147 36710 ft 417 kts 196°
2026-05-04 18:37 -68.99043 10.23862 36719 ft 415 kts 196°
2026-05-04 18:38 -69.04793 10.22556 36719 ft 415 kts 196°
2026-05-04 18:38 -69.10539 10.21245 36719 ft 416 kts 196°
2026-05-04 18:39 -69.16296 10.19929 36717 ft 416 kts 196°
2026-05-04 18:39 -69.22065 10.18606 36453 ft 418 kts 196°
2026-05-04 18:39 -69.24961 10.17926 36321 ft 420 kts 196°
2026-05-04 18:40 -69.27866 10.17254 36079 ft 419 kts 196°
2026-05-04 18:40 -69.30778 10.16588 35821 ft 418 kts 196°
2026-05-04 18:40 -69.33694 10.15913 35547 ft 420 kts 196°
2026-05-04 18:40 -69.36594 10.15229 35292 ft 425 kts 197°
2026-05-04 18:41 -69.39548 10.14524 35037 ft 429 kts 197°
2026-05-04 18:41 -69.42550 10.13814 34787 ft 431 kts 196°
2026-05-04 18:41 -69.45528 10.13117 34534 ft 433 kts 196°
2026-05-04 18:41 -69.48539 10.12414 34283 ft 434 kts 196°
2026-05-04 18:42 -69.51531 10.11715 34049 ft 435 kts 197°
2026-05-04 18:42 -69.54565 10.11001 33802 ft 436 kts 197°
2026-05-04 18:42 -69.57580 10.10287 33610 ft 437 kts 197°
2026-05-04 18:42 -69.60610 10.09569 33323 ft 436 kts 197°
2026-05-04 18:43 -69.63636 10.08854 33051 ft 435 kts 197°
2026-05-04 18:43 -69.66633 10.08137 32776 ft 436 kts 196°
2026-05-04 18:43 -69.69670 10.07403 32499 ft 437 kts 196°
2026-05-04 18:43 -69.72672 10.06675 32233 ft 438 kts 196°
2026-05-04 18:44 -69.75727 10.05934 31964 ft 439 kts 196°
2026-05-04 18:44 -69.77748 10.05443 31787 ft 440 kts 195°
2026-05-04 18:44 -69.81818 10.04453 31429 ft 441 kts 195°
2026-05-04 18:44 -69.84885 10.03705 31179 ft 442 kts 195°
2026-05-04 18:45 -69.87970 10.02952 30929 ft 443 kts 195°
2026-05-04 18:45 -69.91031 10.02202 30671 ft 444 kts 195°
2026-05-04 18:45 -69.94127 10.01443 30485 ft 444 kts 195°
2026-05-04 18:45 -69.97169 10.00702 30240 ft 441 kts 195°
2026-05-04 18:46 -70.00230 9.99879 30047 ft 438 kts 197°
2026-05-04 18:46 -70.03194 9.98313 29917 ft 430 kts 203°
2026-05-04 18:46 -70.06000 9.95746 29795 ft 422 kts 210°
2026-05-04 18:46 -70.08634 9.92082 29646 ft 414 kts 217°
2026-05-04 18:47 -70.10984 9.87430 29519 ft 407 kts 225°
2026-05-04 18:47 -70.13045 9.81788 29354 ft 401 kts 232°
2026-05-04 18:47 -70.14757 9.75316 29216 ft 397 kts 240°
2026-05-04 18:47 -70.16070 9.68280 29081 ft 394 kts 248°
2026-05-04 18:48 -70.16983 9.60670 28919 ft 393 kts 256°
2026-05-04 18:48 -70.17438 9.52821 28793 ft 393 kts 264°
2026-05-04 18:48 -70.17426 9.44677 28647 ft 395 kts 272°
2026-05-04 18:48 -70.16942 9.36774 28505 ft 400 kts 281°
2026-05-04 18:49 -70.15974 9.29016 28364 ft 406 kts 289°
2026-05-04 18:49 -70.14547 9.21803 28221 ft 414 kts 298°
2026-05-04 18:49 -70.12653 9.15255 28089 ft 424 kts 307°
2026-05-04 18:49 -70.10362 9.09744 27941 ft 435 kts 317°
2026-05-04 18:50 -70.07650 9.05361 27810 ft 448 kts 327°
2026-05-04 18:50 -70.04675 9.02498 27675 ft 462 kts 338°
2026-05-04 18:50 -70.01424 9.01270 27546 ft 477 kts 349°
2026-05-04 18:50 -69.98099 9.01772 27409 ft 487 kts 357°
2026-05-04 18:51 -69.94737 9.02994 27190 ft 487 kts 358°
2026-05-04 18:51 -69.91373 9.04282 27060 ft 484 kts 359°
2026-05-04 18:51 -69.88037 9.05787 26921 ft 484 kts
2026-05-04 18:51 -69.84715 9.07706 26799 ft 490 kts
2026-05-04 18:52 -69.81465 9.10967 26661 ft 500 kts 17°
2026-05-04 18:52 -69.78430 9.15842 26532 ft 510 kts 28°
2026-05-04 18:52 -69.75691 9.22606 26404 ft 520 kts 42°
2026-05-04 18:52 -69.73517 9.30900 26281 ft 526 kts 57°
2026-05-04 18:53 -69.71989 9.40605 26152 ft 529 kts 71°
2026-05-04 18:53 -69.71253 9.50930 26021 ft 528 kts 86°
2026-05-04 18:53 -69.71321 9.61363 25903 ft 523 kts 101°
2026-05-04 18:53 -69.72173 9.71469 25781 ft 514 kts 115°
2026-05-04 18:54 -69.73744 9.80648 25650 ft 502 kts 129°
2026-05-04 18:54 -69.75898 9.88396 25524 ft 488 kts 143°
2026-05-04 18:54 -69.78498 9.94459 25397 ft 472 kts 156°
2026-05-04 18:54 -69.81345 9.98610 25289 ft 456 kts 168°
2026-05-04 18:55 -69.84370 10.00911 25160 ft 441 kts 181°
2026-05-04 18:55 -69.90105 10.01504 24927 ft 428 kts 190°
2026-05-04 18:55 -69.93081 10.01201 24860 ft 425 kts 191°
2026-05-04 18:56 -69.95943 10.00781 24753 ft 424 kts 189°
2026-05-04 18:56 -69.98895 10.00292 24617 ft 433 kts 191°
2026-05-04 18:56 -70.01930 9.99960 24457 ft 435 kts 189°
2026-05-04 18:56 -70.04938 9.99934 24252 ft 426 kts 188°
2026-05-04 18:57 -70.07848 10.00212 24026 ft 422 kts 186°
2026-05-04 18:57 -70.10808 10.00786 23788 ft 425 kts 184°
2026-05-04 18:57 -70.13775 10.01650 23556 ft 426 kts 182°
2026-05-04 18:57 -70.16694 10.02787 23328 ft 427 kts 180°
2026-05-04 18:58 -70.19612 10.04211 23049 ft 428 kts 178°
2026-05-04 18:58 -70.22548 10.05940 22764 ft 429 kts 176°
2026-05-04 18:58 -70.25477 10.07967 22487 ft 429 kts 174°
2026-05-04 18:58 -70.28331 10.10243 22268 ft 428 kts 173°
2026-05-04 18:59 -70.31182 10.12824 21987 ft 427 kts 171°
2026-05-04 18:59 -70.33981 10.15666 21709 ft 428 kts 169°
2026-05-04 18:59 -70.36777 10.18818 21466 ft 428 kts 167°
2026-05-04 18:59 -70.39541 10.22251 21193 ft 429 kts 165°
2026-05-04 19:00 -70.42259 10.25583 21109 ft 422 kts 171°
2026-05-04 19:00 -70.45106 10.27476 21103 ft 407 kts 182°
2026-05-04 19:00 -70.47853 10.27391 21104 ft 389 kts 196°
2026-05-04 19:00 -70.50384 10.25392 21103 ft 369 kts 210°
2026-05-04 19:01 -70.52548 10.21681 21071 ft 347 kts 223°
2026-05-04 19:01 -70.54195 10.16884 20486 ft 317 kts 234°
2026-05-04 19:01 -70.55699 10.12112 19373 ft 315 kts 224°
2026-05-04 19:01 -70.57688 10.08932 17770 ft 341 kts 203°
2026-05-04 19:02 -70.60131 10.08167 16359 ft 376 kts 182°
2026-05-04 19:02 -70.62746 10.09500 16136 ft 378 kts 180°
2026-05-04 19:02 -70.65356 10.09667 16096 ft 363 kts 192°
2026-05-04 19:02 -70.67740 10.08333 15971 ft 341 kts 203°
2026-05-04 19:03 -70.69917 10.05973 15856 ft 326 kts 206°
2026-05-04 19:03 -70.72008 10.03704 15758 ft 320 kts 206°
2026-05-04 19:03 -70.74108 10.01207 15753 ft 324 kts 209°
2026-05-04 19:03 -70.76183 9.98493 15814 ft 326 kts 209°
2026-05-04 19:04 -70.78255 9.95818 15936 ft 326 kts 208°
2026-05-04 19:04 -70.80362 9.93170 16115 ft 328 kts 208°
2026-05-04 19:04 -70.82475 9.90525 16128 ft 327 kts 208°
2026-05-04 19:04 -70.84567 9.87868 16143 ft 327 kts 209°
2026-05-04 19:05 -70.86662 9.85164 16154 ft 327 kts 209°
2026-05-04 19:05 -70.88770 9.82401 16170 ft 327 kts 210°
2026-05-04 19:05 -70.90823 9.79582 16202 ft 327 kts 211°
2026-05-04 19:05 -70.92906 9.76671 16071 ft 327 kts 210°
2026-05-04 19:06 -70.94960 9.73840 15839 ft 323 kts 210°
2026-05-04 19:06 -70.96984 9.71025 15464 ft 320 kts 210°
2026-05-04 19:06 -70.98996 9.68197 15097 ft 307 kts 210°
2026-05-04 19:06 -71.00840 9.65605 14821 ft 284 kts 210°
2026-05-04 19:07 -71.02598 9.63135 14498 ft 270 kts 210°
2026-05-04 19:07 -71.04300 9.60718 14186 ft 268 kts 210°
2026-05-04 19:07 -71.05964 9.58314 13923 ft 267 kts 210°
2026-05-04 19:07 -71.07628 9.55867 13649 ft 266 kts 210°
2026-05-04 19:08 -71.09310 9.53351 13304 ft 265 kts 211°
2026-05-04 19:08 -71.10954 9.50853 13068 ft 263 kts 211°
2026-05-04 19:08 -71.12576 9.48351 12933 ft 258 kts 211°
2026-05-04 19:08 -71.14171 9.45849 12884 ft 258 kts 211°
2026-05-04 19:09 -71.15757 9.43316 12808 ft 258 kts 212°
2026-05-04 19:09 -71.17352 9.40717 12734 ft 258 kts 212°
2026-05-04 19:09 -71.18920 9.38113 12645 ft 258 kts 212°
2026-05-04 19:09 -71.20503 9.35429 12550 ft 258 kts 213°
2026-05-04 19:10 -71.22060 9.32734 12483 ft 258 kts 213°
2026-05-04 19:10 -71.23614 9.29986 12399 ft 257 kts 214°
2026-05-04 19:10 -71.25165 9.27179 12332 ft 258 kts 214°
2026-05-04 19:10 -71.26698 9.24343 12150 ft 255 kts 214°
2026-05-04 19:11 -71.28248 9.21689 11972 ft 252 kts 212°
2026-05-04 19:11 -71.29696 9.19179 11791 ft 248 kts 213°
2026-05-04 19:11 -71.31181 9.16498 11618 ft 243 kts 214°
2026-05-04 19:11 -71.32754 9.14823 11467 ft 246 kts 188°
2026-05-04 19:12 -71.34457 9.14473 11228 ft 245 kts 187°
2026-05-04 19:12 -71.37860 9.13494 10678 ft 245 kts 191°
2026-05-04 19:12 -71.38997 9.12990 10522 ft 245 kts 191°
2026-05-04 19:13 -71.40679 9.12237 10193 ft 249 kts 191°
2026-05-04 19:13 -71.42400 9.11380 9871 ft 251 kts 192°
2026-05-04 19:13 -71.44119 9.10432 9591 ft 251 kts 192°
2026-05-04 19:13 -71.45829 9.09400 9392 ft 248 kts 193°
2026-05-04 19:14 -71.47508 9.08291 9166 ft 244 kts 198°
2026-05-04 19:14 -71.49102 9.06628 8938 ft 241 kts 201°
2026-05-04 19:14 -71.50670 9.04893 8676 ft 236 kts 200°
2026-05-04 19:14 -71.52208 9.03230 8267 ft 230 kts 200°
2026-05-04 19:15 -71.53690 9.01539 7860 ft 222 kts 200°
2026-05-04 19:15 -71.55107 8.99840 7461 ft 214 kts 199°
2026-05-04 19:15 -71.56895 8.98097 7273 ft 186 kts 187°
2026-05-04 19:15 -71.57728 8.97682 7246 ft 180 kts 184°
2026-05-04 19:16 -71.58952 8.97433 7226 ft 172 kts 183°
2026-05-04 19:16 -71.60125 8.97171 7187 ft 166 kts 184°
2026-05-04 19:16 -71.61233 8.96377 6920 ft 168 kts 211°
2026-05-04 19:16 -71.61875 8.93382 6516 ft 170 kts 257°
2026-05-04 19:17 -71.61733 8.89709 5948 ft 168 kts 287°
2026-05-04 19:17 -71.61381 8.86246 5443 ft 164 kts 289°
2026-05-04 19:17 -71.60891 8.83025 5140 ft 162 kts 304°
2026-05-04 19:17 -71.60123 8.80307 4872 ft 167 kts 321°
2026-05-04 19:18 -71.59139 8.78516 4755 ft 165 kts 349°
2026-05-04 19:18 -71.58028 8.77847 4662 ft 162 kts 355°
2026-05-04 19:18 -71.56894 8.77535 4547 ft 162 kts 358°
2026-05-04 19:18 -71.55788 8.77278 4341 ft 159 kts 355°
2026-05-04 19:19 -71.54752 8.77002 4255 ft 129 kts 355°
2026-05-04 19:19 -71.54050 8.76807 4231 ft 73 kts 355°
2026-05-04 19:19 -71.53688 8.76708 4214 ft 34 kts 355°
2026-05-04 19:19 -71.53503 8.76658 4208 ft 27 kts 354°
2026-05-04 19:20 -71.53383 8.76640 4203 ft 11 kts 10°
2026-05-04 19:20 -71.53323 8.76746 4204 ft 9 kts 38°
2026-05-04 19:20 -71.53284 8.76840 4204 ft 5 kts 37°
2026-05-04 19:20 -71.53279 8.76853 4206 ft 1 kts 38°
2026-05-04 19:21 -71.53272 8.76979 4203 ft 13 kts 116°
2026-05-04 19:21 -71.53316 8.77023 4203 ft 2 kts 216°
2026-05-04 19:21 -71.53320 8.76884 4206 ft 6 kts 298°
2026-05-04 19:21 -71.53317 8.76869 4206 ft 0 kts 298°
2026-05-04 19:25 -71.56616 8.77481 4507 ft 162 kts 357°
2026-05-04 19:25 -71.55502 8.77199 4312 ft 156 kts 356°
2026-05-04 19:25 -71.56210 8.77393 4445 ft 160 kts 356°
2026-05-04 19:26 -71.55128 8.77104 4281 ft 149 kts 356°
2026-05-04 19:26 -71.54273 8.76870 4240 ft 94 kts 354°
2026-05-04 19:26 -71.53881 8.76760 4222 ft 56 kts 355°